Regional Weather Roundup
Issued by NWS Cleveland, OH

Home | Current Version | Previous Version | Text Only | Print | Product List | Glossary On
Versions: 1 2 3 4 5 6 7 8 9 10 11 12 13 14 15 16 17 18 19 20 21 22 23 24 25 26 27 28 29 30 31 32 33 34 35 36 37 38 39 40 41 42 43 44 45 46 47 48 49 50
000
ASUS41 KCLE 301402
RWRCLE
OHIO REGIONAL WEATHER ROUNDUP
NATIONAL WEATHER SERVICE CLEVELAND, OH
1000 AM EDT SAT MAY 30 2015

NOTE: "FAIR" INDICATES FEW OR NO CLOUDS BELOW 12,000 FEET WITH NO
SIGNIFICANT WEATHER AND/OR OBSTRUCTIONS TO VISIBILITY.

OHZ001>008-015>018-024>027-034-035-043-044-301500-
   NORTHWEST OHIO

CITY           SKY/WX    TMP DP  RH WIND       PRES   REMARKS
DEFIANCE       MOSUNNY   76  67  73 SW8       30.03R
FINDLAY        PTSUNNY   77  68  73 SW10      30.04R
TOLEDO EXPRESS CLOUDY    76  66  71 W14       30.02R
TOLEDO EXEC    MOSUNNY   76  66  71 SW14      30.03R
LIMA           CLOUDY    75  67  76 SW14      30.06R
$$

OHZ009>014-019>023-028>033-038-089-301500-
   NORTHEAST OHIO

CITY           SKY/WX    TMP DP  RH WIND       PRES   REMARKS
CLE-HOPKINS    PTSUNNY   78  67  68 SW12      30.07S
CLE-LAKEFRONT  CLOUDY    77  66  68 SW10      30.04S
CUY CO. ARPT   PTSUNNY   79  68  69 SW9       30.06
LORAIN-ELYRIA  CLOUDY    76  66  71 SW12      30.06S
ASHTABULA      CLOUDY    75  67  76 SW10      30.07F
AKRON-CANTON   CLOUDY    75  65  70 SW10      30.10S
WOOSTER        MOSUNNY   74  67  78 SW13      30.09S
MANSFIELD      CLOUDY    73  67  81 SW10      30.08F
YOUNGSTOWN     PTSUNNY   75  65  70 S12       30.09F
$$

OHZ042-051>053-060>062-070>072-077>081-301500-
  SOUTHWEST OHIO

CITY           SKY/WX    TMP DP  RH WIND       PRES   REMARKS
CINC-COVINGTON MOSUNNY   76  67  73 S7        30.09S
CINC-LUNKEN    MOSUNNY   75  68  78 S12       30.09S
HAMILTON       CLOUDY    75  67  76 SW8       30.09S
DAYTON         PTSUNNY   78  69  73 SW13      30.09S
WRIGHT-PAT AFB MOSUNNY   77  68  74 SW10      30.07S
DAYTON GENERAL MOSUNNY   75  67  76 SW9       30.08S
WILMINGTON     CLOUDY    72  65  78 SW12      30.10R
$$

OHZ036-037-039>041-045>050-054>059-063>069-073>076-082>088-301500-
  CENTRAL AND SOUTHEAST OHIO

CITY           SKY/WX    TMP DP  RH WIND       PRES   REMARKS
COLUMBUS       PTSUNNY   74  67  78 S10       30.09S
OSU AIRPORT    CLOUDY    76  66  71 S10       30.09S
BOLTON FIELD   PTSUNNY   73  66  78 S12G18    30.10S
RICKENBACK AFB NOT AVBL
NEWARK         LGT RAIN  71  68  90 S5        30.10R FOG
MARION         CLOUDY    77  67  71 SW13      30.07F
LANCASTER      PTSUNNY   75  66  73 SW7       30.11R
ZANESVILLE     NOT AVBL
NEW PHILLY     PTSUNNY   76  66  71 SW6       30.11F
$$



USA.gov is the U.S. government's official web portal to all federal, state and local government web resources and services.